Theta_e
292 292 291 291 293 293 293 293 293 293 293 293 293 294 294 293 292 292 292 292 292 292 292 292 292 292 291 291 291 292 294 294 295 298 298 301 304 305 306 306 305 307 307
292 291 292 293 293 293 293 293 293 293 294 294 294 293 293 292 293 292 291 291 291 292 292 292 293 292 292 292 293 294 294 295 295 297 299 301 302 304 305 305 305 305 305
292 292 293 293 294 293 293 293 293 293 293 292 293 293 292 291 291 291 290 291 290 290 291 291 292 292 292 292 294 294 295 295 296 297 299 301 303 302 305 306 305 304 303
293 293 293 294 294 294 293 293 293 293 293 293 292 292 291 291 291 291 290 290 289 289 289 290 291 291 292 292 293 293 295 296 297 299 300 301 301 302 303 305 306 304 303
293 293 294 294 293 293 293 293 293 292 291 289 288 287 288 286 285 285 285 287 289 289 289 290 290 291 291 292 293 293 294 295 297 299 299 299 301 302 301 302 304 302 301
293 293 293 292 293 293 293 292 292 291 290 288 288 288 287 286 285 285 284 284 284 286 289 289 289 290 290 290 290 293 293 294 296 297 298 299 300 301 301 300 301 300 298
293 293 292 290 290 291 290 289 288 287 286 286 285 285 286 286 286 286 286 285 285 285 285 285 287 286 285 287 288 289 290 292 294 297 297 297 299 299 300 299 298 297 294
294 293 293 291 290 290 290 290 289 289 288 288 287 286 287 286 287 286 287 286 286 286 286 286 285 285 286 288 288 286 286 287 291 292 294 296 297 297 298 298 297 295 293
293 293 291 291 290 289 288 289 287 286 286 286 286 286 287 287 287 287 287 287 287 287 287 287 287 286 286 286 286 287 289 288 289 287 287 290 293 294 294 296 295 293 292
291 292 292 291 289 288 288 287 286 286 286 286 287 286 287 287 287 287 287 287 287 287 287 287 287 287 288 288 288 288 288 288 287 287 288 288 287 286 287 288 292 294 288
291 292 291 291 291 291 289 287 286 287 286 286 286 286 286 287 287 287 287 287 287 287 287 288 287 287 287 287 287 287 287 288 288 288 287 288 289 289 289 288 287 287 286
291 291 292 292 290 290 290 290 288 286 286 286 286 286 286 286 286 286 286 286 286 286 287 286 286 286 286 286 286 286 286 287 287 287 287 286 285 286 287 287 287 287 286
289 290 291 291 291 291 290 290 290 288 287 287 285 285 286 286 285 285 285 285 285 285 285 285 285 285 285 284 284 284 284 284 284 284 285 285 285 284 283 284 284 284 285
289 290 290 290 289 289 289 289 288 289 289 289 287 285 285 285 285 284 284 284 284 284 284 284 284 284 284 284 284 284 284 283 283 283 283 283 283 283 283 282 282 282 283
288 288 289 289 289 288 288 288 287 287 287 287 289 288 287 285 284 284 284 284 283 283 283 283 283 283 284 284 283 283 283 283 283 282 282 282 281 281 281 281 281 281 280
286 287 287 287 287 286 286 287 286 286 285 286 287 286 288 287 284 284 283 283 283 282 282 283 283 283 283 283 282 282 282 282 283 282 281 281 281 280 280 280 279 279 279
284 284 284 284 284 284 283 283 283 284 284 283 283 282 282 284 283 283 283 282 282 283 283 283 283 282 282 282 281 281 281 282 282 281 280 280 279 279 279 278 278 278 278
282 282 282 282 282 282 282 281 281 281 281 282 283 282 282 282 282 281 281 282 282 282 281 281 281 280 280 280 280 280 281 280 280 279 279 278 278 278 278 277 278 278 278
281 282 281 281 281 281 281 281 280 280 280 281 281 281 281 281 281 281 281 280 280 280 279 279 279 279 279 279 279 279 278 278 278 277 277 277 277 277 277 277 277 277 277
281 280 280 281 281 280 280 280 280 279 279 279 279 279 279 279 280 280 280 279 279 279 279 279 279 279 278 278 278 278 278 279 279 278 278 277 276 276 276 276 275 275 275
280 280 279 279 280 279 279 279 279 278 278 278 278 277 275 278 278 278 277 277 277 277 277 277 277 277 277 277 277 277 277 277 277 276 276 276 275 275 274 274 273 273 273
279 279 279 279 278 278 278 278 278 278 278 278 277 277 277 277 277 277 277 276 276 276 276 276 276 275 275 274 274 274 274 274 274 274 273 273 273 273 273 273 273 273 273
276 276 276 276 275 275 275 275 274 274 274 274 274 274 274 274 274 274 274 274 274 274 274 274 274 274 274 274 274 274 274 274 273 273 273 273 273 273 273 273 273 273 272
276 275 275 275 275 274 274 274 274 274 274 274 273 273 273 273 273 273 273 273 273 273 273 272 272 272 272 272 272 272 272 272 272 272 272 272 272 272 272 272 272 272 272
275 275 275 275 274 274 274 274 273 273 273 273 273 273 273 273 273 273 273 273 273 273 274 274 274 274 273 272 272 272 271 271 271 271 271 271 271 271 271 271 271 271 271
274 274 274 274 274 274 274 274 274 274 273 274 273 273 273 273 273 273 273 274 274 275 275 275 275 275 274 274 274 274 274 273 272 271 271 271 271 271 272 272 271 271 271
Wind_Speed
11 10 10 8 7 7 9 10 10 10 12 13 15 16 17 18 18 20 21 23 24 25 24 27 28 25 24 24 26 27 28 30 36 37 35 30 24 20 14 15 9 15 19
8 7 6 7 8 8 8 9 7 9 11 13 13 14 15 14 16 19 21 21 22 22 22 22 23 23 23 22 23 24 26 26 28 30 30 31 24 21 21 20 13 11 15
6 6 6 7 8 8 8 6 5 7 9 10 11 12 12 13 14 16 17 18 18 19 19 19 19 21 22 21 20 22 21 22 20 23 24 27 26 25 22 21 17 17 15
6 6 7 7 8 8 6 5 5 6 7 7 8 10 12 12 13 15 17 18 17 16 15 16 17 18 20 20 19 19 19 16 13 15 20 20 18 21 21 21 22 18 21
6 6 7 9 7 6 5 4 4 5 6 6 7 8 9 11 13 15 15 18 19 16 13 12 13 15 16 19 21 21 19 15 14 14 12 13 14 18 21 21 21 21 21
7 6 6 7 6 6 4 3 3 4 5 6 7 7 8 10 11 13 14 14 15 16 15 12 11 12 14 13 11 12 14 14 12 15 17 17 17 19 20 21 22 21 19
9 8 8 8 7 6 6 5 6 8 8 9 9 10 10 10 11 12 13 13 12 12 12 12 11 12 13 16 14 13 10 8 9 11 14 14 17 16 18 20 20 20 19
13 12 12 12 11 11 11 10 10 11 11 12 12 13 12 12 12 12 13 13 13 13 12 11 12 12 11 11 10 11 14 14 11 7 5 6 8 10 12 14 15 15 15
15 16 16 17 17 16 16 15 15 16 16 17 17 15 15 13 15 14 14 13 13 12 12 11 11 11 11 11 11 9 9 10 12 12 10 7 6 5 10 8 6 6 5
17 20 20 21 23 23 21 20 20 21 19 19 18 18 18 16 15 15 15 15 13 13 12 11 11 12 11 10 10 10 9 8 8 8 8 7 7 7 6 6 5 6 8
20 21 23 24 25 26 26 25 24 24 24 23 22 20 19 18 16 17 17 17 16 15 14 12 12 12 12 13 14 13 11 9 9 9 10 9 6 5 5 5 3 2 3
22 24 23 24 26 28 28 28 28 28 28 27 26 24 21 18 19 18 18 18 18 20 17 16 16 15 15 14 13 13 14 14 13 11 10 7 6 5 5 4 3 4 5
20 21 22 23 24 26 30 31 30 31 32 31 29 28 24 19 19 21 21 21 21 22 20 20 19 19 18 17 17 17 17 16 15 13 13 13 12 10 8 7 8 9 9
21 20 20 21 21 21 25 29 32 33 34 33 33 30 28 25 22 21 22 23 23 23 22 22 22 22 22 21 20 19 19 19 19 17 16 14 14 15 14 13 12 13 13
21 20 19 19 19 19 19 22 26 28 31 31 33 32 30 29 24 24 25 25 24 25 26 26 26 25 24 23 22 21 19 18 17 17 17 17 17 17 15 15 17 17 14
22 21 19 18 17 18 19 20 17 19 20 22 26 29 30 29 27 26 27 27 27 26 28 30 29 28 28 25 24 24 22 21 19 19 19 20 19 19 18 17 16 15 15
19 18 18 17 16 16 16 17 20 18 16 16 17 20 23 26 25 26 27 26 26 23 27 29 30 30 30 29 28 26 25 22 22 24 24 23 21 20 18 16 15 14 14
17 16 17 17 17 16 15 16 17 21 23 23 18 17 18 19 22 23 23 23 25 25 27 28 29 30 31 29 28 27 27 26 26 26 25 24 23 22 21 19 15 14 13
18 17 17 16 15 15 15 14 14 14 14 15 15 13 14 16 19 21 21 22 23 24 25 26 26 26 26 27 28 28 28 27 26 24 22 22 22 21 19 15 13 12 12
16 16 16 16 15 14 13 12 12 11 12 12 13 13 13 13 13 14 14 15 16 19 20 22 21 22 23 24 23 22 21 20 20 19 18 16 15 15 15 15 14 13 13
16 15 15 14 14 14 14 13 12 12 11 10 10 8 9 12 12 11 12 12 14 15 14 14 14 15 14 14 13 13 13 13 13 13 14 14 13 12 12 11 11 10 11
14 14 14 14 14 13 13 13 12 12 11 11 10 9 9 9 9 9 9 9 10 11 12 12 13 13 13 12 12 12 12 12 11 12 12 11 11 11 12 12 13 13 13
11 11 11 11 12 12 11 11 11 11 11 11 11 11 11 11 11 11 11 12 12 12 13 13 13 13 13 14 13 13 12 11 12 12 12 12 12 12 12 11 11 10 11
11 10 10 11 11 11 11 11 12 13 14 14 15 15 15 16 16 16 16 16 17 17 17 17 17 17 17 17 17 17 16 15 15 15 14 13 13 12 12 11 10 9 8
10 9 10 11 12 13 14 15 16 17 17 19 19 19 19 19 19 19 19 20 21 22 21 20 20 20 20 20 19 19 20 20 19 18 18 17 16 14 14 14 12 12 10
10 12 13 15 16 17 18 19 20 21 22 23 23 23 23 24 23 24 23 24 25 25 25 23 22 22 22 21 20 20 20 21 20 20 20 19 18 16 16 15 15 14 12
Wind_Direction
281 293 303 303 305 316 311 307 305 307 308 309 307 308 309 310 310 311 316 315 310 305 297 294 297 300 295 291 287 282 274 270 271 275 278 277 282 280 271 285 276 272 275
303 323 314 315 329 322 322 313 316 320 316 316 316 317 318 320 315 315 316 313 307 303 298 297 303 302 296 291 286 279 278 273 268 266 276 260 274 284 281 284 280 282 283
333 334 330 345 340 336 337 343 338 328 327 330 334 337 336 335 336 337 334 328 318 308 305 302 304 302 301 298 292 284 281 278 261 259 263 264 269 283 276 273 282 285 295
326 336 341 333 332 334 346 355 349 339 346 355 0 359 1 3 360 0 1 356 344 332 320 312 308 309 309 307 306 303 294 286 281 264 266 263 280 286 279 281 283 284 290
317 343 334 314 315 329 344 359 354 349 354 0 359 359 358 358 353 354 0 4 4 357 343 332 324 319 315 310 310 309 298 297 294 299 296 288 287 289 289 291 286 283 281
313 320 310 306 308 319 333 345 350 333 335 337 335 336 333 338 341 341 345 346 350 3 8 359 346 343 340 335 343 322 302 294 287 293 291 297 300 295 292 289 284 284 281
289 288 291 295 299 298 301 303 303 305 306 307 308 309 313 319 323 327 333 336 342 346 349 354 0 358 358 1 2 7 357 325 296 286 286 291 290 297 290 284 283 284 275
278 279 279 279 281 281 284 289 294 294 295 298 299 302 307 311 314 317 321 324 328 334 339 343 349 346 349 2 6 9 8 7 6 9 334 290 297 315 304 292 289 285 284
282 277 274 274 274 274 277 280 282 285 285 289 292 294 298 304 306 309 311 312 316 319 325 330 334 339 340 344 347 350 4 10 9 20 24 20 360 1 354 341 346 342 328
281 271 267 266 268 271 274 276 278 280 283 281 284 289 293 296 296 298 300 304 307 310 313 319 323 326 332 337 343 351 352 355 3 11 22 36 30 25 31 36 38 20 10
284 278 270 265 264 266 267 268 273 274 277 279 280 281 283 288 289 289 291 293 298 299 302 305 309 313 317 321 325 329 333 337 343 346 350 357 16 26 19 34 39 3 338
289 287 284 277 267 264 263 263 265 269 272 275 277 278 279 281 283 282 283 285 289 293 298 299 301 304 307 308 309 311 313 315 318 318 316 320 331 337 332 323 317 303 283
305 296 291 284 278 269 265 263 261 262 266 272 274 277 279 278 276 279 279 279 281 284 290 293 295 298 300 303 305 306 304 302 299 298 298 300 301 300 290 275 276 274 274
318 315 307 298 290 280 273 271 267 265 265 268 272 277 281 278 272 273 276 276 279 281 283 284 288 290 294 298 299 299 298 298 300 301 299 295 293 296 296 290 283 278 280
324 320 315 309 303 296 285 279 277 273 270 269 268 272 276 274 275 273 272 273 276 280 283 282 284 285 288 291 290 290 289 289 293 298 300 302 302 299 291 285 289 294 292
332 332 328 319 313 307 301 293 287 289 287 276 269 271 270 271 273 273 273 275 276 277 277 280 283 286 289 292 291 289 289 290 293 295 299 302 302 303 304 303 301 296 290
337 335 332 327 320 317 315 309 303 300 295 289 280 274 273 272 272 270 270 271 271 273 269 274 280 284 287 287 288 292 294 292 294 298 299 299 300 301 300 298 298 296 295
346 343 338 336 331 326 315 307 304 298 297 297 290 281 265 259 263 262 262 263 264 264 269 273 276 279 282 286 288 288 289 288 287 288 289 289 290 293 296 299 295 294 298
350 352 349 345 340 333 327 320 314 309 308 309 307 299 284 273 270 271 270 266 269 271 272 275 279 282 283 284 284 285 286 285 285 285 283 283 282 282 284 287 292 298 297
359 357 355 354 353 352 349 344 337 331 326 323 321 321 316 305 299 292 288 285 281 281 281 279 277 277 277 278 279 280 280 279 278 280 282 283 282 282 282 280 281 283 282
358 359 3 3 7 11 10 8 5 360 357 352 348 346 333 322 321 315 307 300 298 299 299 296 293 290 286 285 285 286 286 288 286 282 278 278 280 281 283 286 288 288 288
353 356 0 5 9 10 13 11 9 8 5 2 359 350 341 334 327 319 311 305 298 294 291 289 287 286 284 282 280 279 279 278 276 275 274 275 275 278 283 286 285 284 286
359 5 7 10 12 13 10 8 6 3 358 353 347 341 334 328 323 318 313 307 303 299 295 293 291 288 285 283 283 282 279 275 271 270 270 270 271 272 271 271 272 272 272
349 353 357 359 358 355 351 348 346 342 338 335 331 327 322 318 314 310 306 303 299 296 293 290 287 284 280 277 278 278 277 275 272 272 272 271 267 265 266 266 268 272 278
335 336 337 336 335 334 332 330 329 328 325 322 320 317 313 309 307 303 301 298 297 296 294 290 287 283 278 274 270 268 267 266 265 262 263 265 267 265 264 265 266 267 269
319 320 323 324 324 322 322 322 322 321 319 317 314 312 311 310 309 306 303 300 296 293 291 290 286 282 280 278 275 270 264 262 261 261 261 261 262 262 262 260 257 259 260